Regional Weather Roundup
Issued by NWS

Home | Current Version | Previous Version | Graphics & Text | Print | Product List | Glossary On
Versions: 1 2 3 4 5 6 7 8 9 10 11 12 13 14 15 16 17 18 19 20 21 22 23 24 25 26 27 28 29 30 31 32 33 34 35 36 37 38 39 40 41 42 43 44 45 46 47 48 49 50
000
ASUS43 KIND 200359
RWRIN

WEATHER ROUNDUP FOR INDIANA
NATIONAL WEATHER SERVICE INDIANAPOLIS IN
1100 PM EST SUN FEB 19 2017

NOTE: "FAIR" INDICATES FEW OR NO CLOUDS BELOW 12,000 FEET WITH NO
SIGNIFICANT WEATHER AND/OR OBSTRUCTIONS TO VISIBILITY.

* - STATION DOES NOT REPORT WEATHER SUCH AS PRECIPITATION OR FOG.

+ - STATION NOT QUALITY CONTROLLED BY THE NATIONAL WEATHER SERVICE.
    USE DATA WITH CAUTION...ESPECIALLY DEWPOINT AND RELATIVE
    HUMIDITY OBSERVATIONS.

INZ001>003-010>013-019-020-200500-
NORTHWEST INDIANA

CITY           SKY/WX    TMP DP  RH WIND       PRES   REMARKS
GARY /AIRPORT/ CLOUDY    40  35  80 SE3       30.11S
KNOX *+        PTCLDY    37  18  44 E3        30.13R
MONTICELLO +   CLOUDY    44  41  89 CALM      30.12R

$$

LMZ046-743>745-200500-
SOUTHERN LAKE MICHIGAN

STATION/POSITION TIME  TEMP    WIND        PRES    WAVE
                       AIR SEA DIR/SP/G            HT
                 (UTC) (F)     (DEG/KT/KT) (MB)    (FT)
BURNS HARBOR     0340   55     140/  6/  8 1020.3R
MICHIGAN CITY    0330   52     110/  6/  6   N/A

$$

INZ004-005-014>016-021>024-200500-
NORTH CENTRAL INDIANA

CITY           SKY/WX    TMP DP  RH WIND       PRES   REMARKS
GOSHEN         CLOUDY    39  32  76 S3        30.14R
PERU/GRISSOM   CLEAR     45  45 100 SE6       30.12R FOG
SOUTH BEND     PTCLDY    37  27  67 CALM      30.14R
WARSAW +       PTCLDY    37  32  81 CALM      30.14R

$$

INZ006>009-017-018-025>027-200500-
NORTHEAST INDIANA

CITY           SKY/WX    TMP DP  RH WIND       PRES   REMARKS
ANGOLA *+      CLEAR     37  34  87 CALM      30.14R
FORT WAYNE     CLOUDY    42  33  70 CALM      30.15R
KENDALLVILLE + CLOUDY    42  34  73 CALM      30.15R

$$

INZ028-029-035-036-043>045-051>053-200500-
WEST CENTRAL INDIANA

CITY           SKY/WX    TMP DP  RH WIND       PRES   REMARKS
LAFAYETTE      CLEAR     45  40  82 CALM      30.12R
TERRE HAUTE    CLOUDY    44  42  93 CALM      30.14R FOG

$$

INZ030>032-037>040-046>048-054>057-064-065-200500-
CENTRAL INDIANA

CITY           SKY/WX    TMP DP  RH WIND       PRES   REMARKS
CP ATTERBURY + CLEAR     43  41  93 CALM      30.16R
FRANKFORT +    CLEAR     45  42  88 SE6       30.14S
GREENWOOD *+   CLEAR     50  46  87 SE6       30.15S
INDIANAPOLIS   CLEAR     49  45  86 SE8       30.14R
-EAGLE CREEK   CLEAR     46  42  86 CALM      30.13S
KOKOMO +       CLEAR     45  42  89 SE6       30.14R
MT COMFORT *+  CLEAR     45  43  93 S8        30.14S
SHELBYVILLE    CLEAR     45  41  86 SE8       30.15R

$$

INZ033-034-041-042-049-050-058-059-200500-
EAST CENTRAL INDIANA

CITY           SKY/WX    TMP DP  RH WIND       PRES   REMARKS
MUNCIE         CLEAR     50  44  80 S5        30.15R

$$

INZ060-061-067>069-081>083-085>088-200500-
SOUTHWEST INDIANA

CITY           SKY/WX    TMP DP  RH WIND       PRES   REMARKS
EVANSVILLE     PTCLDY    48  46  93 NE3       30.15R FOG
HUNTINGBURG *+ FOG       46  46 100 E5        30.15S VSB 1/4

$$

INZ062-063-066-070>080-084-089>092-200500-
SOUTH CENTRAL AND SOUTHEAST INDIANA

CITY           SKY/WX    TMP DP  RH WIND       PRES   REMARKS
BLOOMINGTON    CLEAR     41  37  86 CALM      30.14R
MADISON *+       N/A     41  37  87 CALM      30.17S VSB<1/4
SEYMOUR +        N/A     43  43 100 CALM      30.16R FOG

$$




USA.gov is the U.S. government's official web portal to all federal, state and local government web resources and services.